RH
78 87 77 77 82 94 96 87 96 97 96 96 96 97 95 91 83 78 67 43 28 30 30 30 28 26 25 24 22 22 22 33 54 52 57 62 73 70 69 72 69 58 61
73 94 95 94 94 95 95 97 96 97 96 93 93 93 94 91 82 75 67 46 42 37 34 32 30 28 28 26 20 21 23 22 28 52 43 35 52 72 32 19 46 66 68
85 94 96 91 97 97 96 96 97 96 97 96 98 95 92 85 81 72 55 47 41 38 37 35 32 33 33 35 35 31 25 22 23 24 37 42 45 53 27 30 24 30 44
97 97 97 94 97 96 95 96 97 96 98 96 96 94 89 78 68 58 52 46 39 39 40 42 44 46 44 42 39 38 38 35 26 23 22 23 24 30 28 28 23 21 25
96 97 98 98 94 96 96 96 95 95 95 95 92 90 80 70 64 57 53 50 45 40 37 34 32 29 28 27 21 21 26 31 35 35 31 27 24 22 22 23 24 28 30
98 96 96 95 94 94 94 80 72 73 70 62 51 61 62 50 46 41 33 24 18 14 11 10 9 8 8 7 6 5 5 6 6 6 6 6 12 18 22 23 24 24 23
94 95 95 86 82 82 72 44 52 56 52 44 30 26 24 18 13 11 9 9 8 6 4 4 3 3 2 2 1 1 1 2 2 2 2 2 2 2 2 2 3 4 8
95 97 94 95 89 85 61 18 13 13 13 11 9 9 10 9 9 7 5 3 2 2 2 2 2 2 2 2 3 3 4 4 4 4 4 4 4 4 4 4 4 4 4
97 95 94 96 94 85 22 16 14 13 14 14 13 10 7 4 2 2 2 2 3 4 5 5 6 5 5 5 5 5 4 4 4 4 5 5 5 4 4 4 4 3 4
68 54 50 55 43 30 25 22 19 19 16 7 3 2 2 2 2 3 5 6 8 8 8 7 7 7 6 5 5 5 6 8 7 6 6 6 5 5 5 5 5 5 4
24 34 30 31 30 27 20 13 8 5 3 2 2 2 3 4 6 8 8 8 8 7 6 5 5 5 5 6 8 8 7 7 7 7 6 6 6 6 5 4 4 4 4
8 9 10 9 7 6 4 3 2 2 2 2 4 6 6 7 8 9 8 8 6 6 8 8 9 9 9 9 8 7 6 7 7 7 8 6 5 4 4 4 4 4 3
4 3 3 4 3 3 2 2 2 2 4 6 8 10 10 11 10 10 10 7 8 9 9 8 8 8 9 8 8 8 10 10 10 10 8 6 5 4 4 3 3 3 3
2 2 2 2 2 2 2 2 4 5 7 8 8 9 10 11 11 11 10 9 8 9 9 8 8 8 8 8 9 10 10 10 8 6 6 6 4 4 3 3 3 3 4
2 2 3 3 4 4 5 6 7 7 8 8 10 12 13 13 14 13 13 12 11 8 8 9 8 8 7 8 10 10 10 10 9 6 5 5 4 4 3 3 3 3 4
3 3 4 4 5 5 6 6 7 7 9 11 15 14 13 12 10 10 10 9 9 7 7 7 7 7 7 8 9 10 10 10 9 9 6 6 6 4 3 3 3 3 3
5 3 3 4 4 4 5 5 5 6 8 11 17 19 19 17 14 15 15 14 13 12 11 12 13 12 11 11 11 11 12 11 10 9 10 7 7 7 6 6 7 6 6
2 4 8 6 4 3 3 4 4 6 8 13 17 19 20 21 22 21 19 18 17 17 17 17 16 16 16 16 14 13 13 12 11 10 10 10 8 8 7 8 10 10 10
2 2 3 3 6 10 7 5 5 7 11 16 18 20 22 21 21 22 22 21 20 20 19 18 19 19 20 21 19 17 14 14 13 11 10 10 10 10 10 11 13 16 18
3 4 5 5 4 3 10 11 9 8 10 15 19 21 20 20 19 20 22 22 21 20 21 22 22 23 24 23 21 20 18 16 16 14 13 12 11 11 13 16 18 19 19
5 4 7 8 8 6 3 5 11 13 13 15 16 16 16 16 17 20 24 24 24 26 27 27 26 25 23 23 23 23 20 16 15 14 13 13 14 15 17 20 21 23 24
5 6 7 10 10 10 7 4 4 8 12 13 13 13 12 14 20 25 28 29 29 29 29 28 27 26 24 22 22 22 26 24 21 19 17 18 21 22 26 26 28 28 27
6 8 8 9 12 12 11 8 4 6 8 8 9 11 16 24 30 32 33 32 31 30 30 30 29 29 29 27 26 25 24 27 29 31 34 36 37 42 39 39 37 36 34
9 7 7 7 11 12 12 9 6 8 9 12 16 21 29 34 37 37 36 35 35 34 35 37 39 41 43 42 40 37 34 29 26 23 48 60 55 51 47 42 40 39 35
8 8 7 7 11 13 13 10 7 10 15 20 26 37 40 42 43 42 42 41 42 45 48 50 50 48 47 47 46 46 45 41 37 25 20 24 30 32 37 38 36 27 23
11 9 9 12 16 17 15 13 10 12 23 33 46 46 47 48 47 48 49 51 55 57 60 62 62 62 60 58 57 56 58 58 56 46 37 35 29 28 29 30 27 17 9
Wind_Speed
19 19 19 21 17 10 17 13 14 21 26 24 17 23 16 13 13 14 13 13 10 8 7 6 5 4 1 1 2 2 4 6 5 4 3 2 2 2 3 0 3 2 2
21 23 18 20 21 14 12 16 26 22 17 14 17 18 15 13 15 15 14 12 10 9 8 7 7 6 4 1 1 2 2 4 5 3 3 2 3 2 2 2 2 2 3
20 25 14 20 17 14 19 15 18 16 16 21 21 19 17 14 13 12 12 11 10 9 9 8 8 6 4 2 1 1 2 2 2 2 2 1 1 2 3 4 3 3 3
25 27 27 19 18 23 22 24 24 24 28 21 16 15 16 13 11 11 10 10 9 10 9 9 8 7 5 4 3 2 2 1 1 2 1 1 1 2 1 2 3 5 5
22 27 37 22 15 17 21 20 19 15 16 18 14 15 15 13 12 11 10 9 9 10 10 10 9 8 5 4 3 2 2 2 3 4 2 3 4 5 5 6 6 6 6
22 17 13 15 13 11 13 10 9 11 10 10 10 10 11 12 13 14 12 12 11 11 11 10 10 8 7 5 3 3 1 1 1 0 2 3 3 4 5 6 6 7 7
23 19 10 14 15 14 13 12 13 11 11 11 10 13 15 14 14 12 12 12 11 10 8 8 7 6 7 6 6 4 4 3 0 1 0 1 1 2 4 5 7 8 8
18 18 14 13 15 15 14 13 12 13 13 13 15 14 14 13 13 12 12 12 11 11 10 9 9 8 8 7 7 5 5 5 4 4 5 5 5 5 6 7 8 9 10
14 14 12 8 13 13 15 14 14 15 14 14 14 14 14 14 14 14 14 14 13 12 10 9 10 9 9 8 8 7 5 3 3 3 3 6 7 8 10 11 11 12 13
5 7 8 13 15 19 18 14 14 15 14 14 15 15 15 15 14 14 13 12 12 11 11 11 12 12 11 11 9 8 5 5 6 7 9 10 11 12 12 14 14 15 15
10 10 12 14 15 13 13 14 14 14 14 15 15 15 14 14 15 14 14 15 14 14 14 14 13 12 11 11 10 11 12 13 13 13 14 16 16 15 16 15 14 13 13
12 14 15 15 13 13 14 15 15 15 16 15 15 15 15 16 17 17 18 17 18 17 16 15 13 13 14 15 16 17 19 20 20 20 17 18 20 19 18 15 14 16 17
13 14 14 14 15 14 15 15 15 16 16 16 16 17 18 18 19 20 21 22 22 21 19 17 16 16 16 19 21 23 21 23 23 23 23 22 22 20 17 17 19 20 22
14 14 14 15 14 16 17 17 17 18 18 19 20 20 22 23 24 25 25 26 26 25 24 23 23 21 20 24 26 27 25 25 27 28 27 26 26 24 24 24 25 25 26
17 17 17 17 18 19 20 20 21 20 21 22 23 23 25 26 28 28 29 29 30 29 29 29 30 28 28 29 30 30 29 30 30 31 31 31 31 31 31 31 32 32 33
20 21 21 21 22 23 23 24 25 25 26 27 29 27 27 28 28 28 29 29 30 31 32 33 34 34 35 36 35 34 34 35 37 37 36 36 35 35 37 38 38 39 40
22 24 27 28 29 30 30 31 31 31 31 32 33 31 30 29 29 29 29 30 29 31 33 34 34 36 38 39 39 39 39 39 40 44 43 42 42 42 42 42 42 43 44
22 25 28 30 32 34 34 34 34 34 35 36 36 35 34 34 33 33 34 33 34 35 36 37 38 38 40 41 42 43 43 44 44 48 50 49 49 49 49 49 48 49 51
26 26 29 33 34 35 37 38 38 39 38 37 37 36 37 36 36 36 37 38 38 39 40 41 42 43 43 44 45 47 48 47 47 50 52 53 53 53 54 54 55 55 56
29 30 31 33 36 38 38 39 40 41 41 41 41 41 41 41 40 40 40 40 41 43 44 45 46 46 46 46 46 47 49 49 50 52 55 58 58 60 59 60 61 63 64
33 33 35 37 39 40 40 42 44 44 44 44 45 45 44 44 43 43 43 44 45 46 47 47 48 48 48 47 46 48 50 52 54 56 58 60 61 63 64 65 67 69 71
38 38 39 39 40 42 43 45 46 45 45 46 47 47 46 45 45 44 45 46 47 47 47 47 47 47 49 50 50 50 51 54 56 59 61 63 65 67 69 72 74 76 77
42 43 43 44 43 43 45 46 46 46 46 47 48 47 46 46 45 46 47 47 47 47 48 48 49 50 52 54 56 57 58 58 58 60 63 65 68 70 73 75 78 80 81
47 49 50 50 47 46 47 48 48 47 48 49 49 47 47 47 47 47 47 48 48 48 49 51 52 54 56 58 60 62 63 65 65 64 63 64 67 70 73 76 78 79 82
53 53 53 52 51 48 49 49 49 49 49 49 48 49 50 49 49 49 50 50 50 51 52 54 56 58 60 62 63 65 66 68 70 70 71 73 75 78 79 78 76 79 82
55 54 54 53 52 50 50 51 51 50 50 50 50 52 51 51 51 51 52 52 53 54 57 58 60 62 65 66 67 68 69 70 71 73 76 78 81 82 83 84 83 84 87
Wind_Direction
232 218 211 211 216 243 249 222 242 239 240 221 249 231 192 185 197 204 204 209 206 204 214 218 225 231 241 10 347 44 66 80 98 103 103 99 107 104 74 51 266 309 318
224 208 209 206 209 246 205 231 235 222 220 222 207 196 174 185 195 191 199 203 201 211 221 231 237 236 241 227 74 31 34 49 68 117 102 57 29 67 54 28 22 334 300
215 197 193 208 207 221 193 202 201 199 205 204 194 184 167 170 173 186 194 202 206 214 225 237 244 245 228 212 174 125 92 76 41 66 120 153 341 61 28 8 10 357 342
164 168 192 201 208 189 188 179 193 216 209 188 181 177 163 170 189 195 205 209 212 220 221 231 239 241 237 237 223 218 233 101 227 251 300 296 300 323 336 358 357 356 1
151 164 172 179 168 164 161 170 154 163 172 167 157 159 168 181 194 197 203 209 213 216 219 224 224 234 235 236 246 233 203 194 230 274 281 282 296 303 311 317 318 322 327
190 175 153 151 149 140 133 153 157 157 162 164 166 171 187 193 200 201 201 209 215 219 218 223 225 228 232 232 221 204 148 113 165 261 339 334 310 301 300 300 301 302 303
216 220 177 158 156 162 157 180 177 185 184 187 184 194 199 203 207 204 204 206 204 206 204 206 206 196 187 165 171 158 136 142 261 23 70 291 316 319 337 335 329 324 316
205 187 199 178 174 181 193 190 191 192 196 195 197 199 201 203 205 201 193 188 190 192 196 201 208 207 202 204 215 208 203 210 233 250 263 269 279 293 302 306 313 313 314
206 215 237 206 179 189 206 192 200 201 198 205 207 203 199 199 193 191 195 197 202 208 215 227 235 242 246 250 247 229 199 205 216 256 276 303 314 313 312 310 303 303 305
202 210 220 203 194 199 206 207 211 213 203 202 199 196 197 200 204 208 212 218 225 230 233 238 247 252 253 250 244 243 241 275 274 283 293 286 284 282 283 288 290 291 294
242 237 232 228 226 220 209 205 205 201 199 199 203 208 208 216 222 225 228 229 233 236 239 241 242 243 245 243 248 253 261 272 268 274 278 279 277 273 275 276 278 286 295
218 221 223 222 222 217 211 199 195 199 209 212 216 225 229 232 236 236 237 239 237 236 235 235 237 243 247 254 256 258 258 269 275 278 276 281 285 287 281 282 288 297 307
230 228 230 225 218 214 209 211 215 215 220 227 232 239 242 244 244 243 245 243 239 237 236 239 250 259 266 271 270 271 274 278 283 285 284 281 280 283 282 280 281 283 288
243 240 230 227 223 221 222 225 226 227 231 237 241 246 250 250 250 248 248 248 244 244 245 253 261 268 271 274 275 276 282 286 285 282 279 277 272 271 271 269 273 280 283
248 244 241 239 233 231 234 235 239 240 243 247 251 252 255 256 256 257 259 258 256 253 252 256 262 272 275 275 274 277 281 283 286 284 279 274 271 271 274 277 280 281 283
250 253 256 256 254 252 250 251 251 251 252 251 249 249 253 255 258 259 259 261 260 259 261 263 268 273 276 276 276 278 280 281 284 287 281 275 273 272 271 273 275 277 280
256 258 257 254 252 252 251 251 252 251 251 249 249 249 251 253 254 257 258 257 259 261 264 269 272 274 275 278 280 283 284 285 285 285 284 280 279 278 278 279 281 282 282
258 259 261 261 258 258 257 254 253 252 251 251 253 254 257 260 261 262 263 264 265 266 267 269 272 273 276 279 281 281 282 282 283 284 285 285 282 282 281 282 282 282 282
259 263 264 259 257 255 255 254 253 252 253 254 256 258 259 262 264 265 267 268 269 271 272 273 275 276 278 278 278 279 280 282 283 284 284 284 283 283 282 282 282 282 281
266 271 271 266 260 256 254 254 254 254 254 255 257 259 260 262 264 266 268 270 271 272 273 274 275 276 277 277 277 279 281 282 283 284 285 284 284 284 284 284 283 282 282
266 269 270 267 261 257 256 254 254 254 254 255 257 260 263 265 267 268 270 271 273 274 275 275 276 277 278 278 277 279 280 281 282 282 283 283 282 281 283 284 284 283 283
266 266 267 266 263 261 257 255 254 255 256 257 259 261 263 264 266 268 271 273 274 275 276 278 279 281 282 282 282 281 280 282 284 285 285 285 286 286 287 286 286 285 285
263 266 266 264 263 261 258 257 256 255 255 257 258 260 262 264 266 269 272 273 275 278 280 281 282 283 284 284 284 283 282 281 280 282 284 285 286 288 288 288 288 288 288
260 263 266 266 262 261 259 257 255 254 255 257 258 259 260 263 266 269 270 272 275 278 280 282 284 285 285 286 286 286 286 285 284 282 285 287 288 289 290 290 291 290 289
262 265 266 265 264 262 260 259 258 256 256 256 257 258 261 264 266 267 269 272 274 277 281 283 285 286 287 286 286 287 288 288 287 285 284 286 289 292 293 293 291 289 288
263 263 263 261 260 260 260 258 257 256 257 257 257 260 263 265 266 268 270 273 276 279 282 284 286 286 286 286 286 287 288 289 290 290 290 290 290 293 293 292 292 293 294